sat.trackr.live / text

‹ back to catalog

STARLINK-31249

NORAD 58838 · 2024-017N

PAYLOAD ACTIVE UNKNOWN

§ Identity

Operator
Country
US
Launch date
2024-01-24
Launch site
AFWTR
Launch vehicle
Mass (kg)
RCS (m²)

Purposes: comms

External: N2YO · Heavens-Above · Gunter

§ Orbital elements

Epoch: 2026-05-25T03:53:23.673984Z

Period
94.11 min
Inclination
53.1609°
Eccentricity
0.0001067
Mean motion
15.30190480 rev/d
Perigee alt
474.5 km
Apogee alt
476.0 km
Semi-major
6,853.4 km
B*
7.3545e-6
RAAN
209.1710°
Arg perigee
88.5717°
Mean anomaly
271.5406°
Rev number
13,176

§ Raw data

STARLINK-312491 58838U 24017N   26145.16207956 -.00000141  00000+0  73545-5 0  99952 58838  53.1609 209.1710 0001067  88.5717 271.5406 15.30190480131762

JSON: /api/v1/satellites/58838 · /tle

For live sub-satellite position, see the globe view (requires WebGL).

§ Visibility from observer

Set your observer location to see the next 7 days of passes ≥ 10°. The values pass through the URL so the page stays shareable.

No JS? Fill the form by hand. The geolocation button needs JavaScript.